User: anonymous   Login
Location: Diguira
(13.1838°N, 4.9109°W)
Time: 22:30:54
(UTC+00:00)
Language:

SWARM A - Orbit

View from above orbital plane
View from above orbital plane
View from above satellite
View from above satellite

Ground track
Ground track

The orbit data is extracted from the following two-line orbital elements,

1 39452U 13067B   20327.91352973 +.00002652 +00000-0 +55501-4 0  9998
2 39452 087.3617 073.0107 0003442 099.2283 260.9364 15.44919567393647
Epoch (UTC): 22 November 2020 21:55:28
Eccentricity: 0.0003442
inclination: 87.3617°
perigee height: 429 km
apogee height: 434 km
right ascension of ascending node: 73.0107°
argument of perigee: 99.2283°
revolutions per day: 15.44919567
mean anomaly at epoch: 260.9364°
orbit number at epoch: 39364

The dashed part of the orbit path shows where the satellite is in the earth's shadow,  

DLR